"Pseudo-MPEC" for C0QFPC2

Created 2019 Jun 15 1:07:26 UT using Find_Orb

Click here for an explanation of pseudo-MPECs

 
 Astrometry: 
     C0QFPC2  C2019 06 03.43139 22 11 28.48 -13 56 51.5    ~63BM 21.6 GVNEOCPG96
     C0QFPC2  C2019 06 03.43622 22 11 28.94 -13 56 41.4    ~63BM 21.7 GVNEOCPG96
     C0QFPC2  C2019 06 03.44591 22 11 29.92 -13 56 22.5    ~63BM 21.7 GVNEOCPG96
     C0QFPC2  C2019 06 03.45580 22 11 31.01 -13 56 02.6    ~63Bb 21.7 GVNEOCPG96
     C0QFPC2  C2019 06 03.45802 22 11 31.27 -13 55 58.3    ~63Bb 22.3 GVNEOCPG96
     C0QFPC2  C2019 06 03.45946 22 11 31.39 -13 55 55.3    ~63Bb 21.8 GVNEOCPG96
     C0QFPC2  C2019 06 04.42143 22 13 16.25 -13 23 41.2    ~64Ab 22.0 GVNEOCPV06
     C0QFPC2  C2019 06 04.42382 22 13 16.50 -13 23 36.3    ~64Ab 21.5 GVNEOCPV06
     C0QFPC2  C2019 06 04.42620 22 13 16.76 -13 23 31.5    ~64Ab 21.6 GVNEOCPV06
     C0QFPC2  C2019 06 04.43096 22 13 17.24 -13 23 22.3    ~64Ab 21.6 GVNEOCPV06
     C0QFPC2  C2019 06 05.44377 22 15 06.34 -12 48 55.3    ~65Bq 21.4 GVNEOCPV06
     C0QFPC2  C2019 06 05.44707 22 15 06.70 -12 48 48.5    ~65Bq 21.0 GVNEOCPV06
     C0QFPC2  C2019 06 05.45036 22 15 07.06 -12 48 42.0    ~65Bq 21.4 GVNEOCPV06
     C0QFPC2  C2019 06 06.42541 22 16 51.10 -12 15 02.8    ~66Ab 20.9 GVNEOCPG96
     C0QFPC2  C2019 06 06.42758 22 16 51.34 -12 14 58.6    ~66Ab 22.0 GVNEOCPG96
     C0QFPC2  C2019 06 06.42980 22 16 51.60 -12 14 54.0    ~66Ab 21.7 GVNEOCPG96
     C0QFPC2  C2019 06 06.43196 22 16 51.80 -12 14 49.8    ~66Ab 21.8 GVNEOCPG96
     C0QFPC2  C2019 06 11.43894 22 25 29.01 -09 14 23.9    ~6BB7 21.6 GVNEOCPG96
     C0QFPC2  C2019 06 11.44119 22 25 29.23 -09 14 18.7    ~6BB7 21.6 GVNEOCPG96
     C0QFPC2  C2019 06 11.44346 22 25 29.44 -09 14 12.3    ~6BB7 20.4 GVNEOCPG96
     C0QFPC2  C2019 06 13.37423 22 28 41.33 -08 01 11.8    ~6D9q       VNEOCPG96
     C0QFPC2  C2019 06 13.37649 22 28 41.57 -08 01 05.7    ~6D9q       VNEOCPG96
     C0QFPC2  C2019 06 13.37875 22 28 41.83 -08 01 00.5    ~6D9q 21.4 GVNEOCPG96

Station data:
(G96) Mt. Lemmon Survey  (N32.442754 W110.788720)  US/Arizona.  Observers T.
   A. Pruyne, B. M. Africano, E. J. Christensen, G. A. Farneth, D. C. Fuls,
   A. R. Gibbs, A. D. Grauer, H. Groeller, J. A. Johnson, R. A. Kowalski, S.
   M. Larson, G. J. Leonard, R. L. Seaman, F. C. Shelly. 1.5-m reflector +
   10K CCD.
(V06) Catalina Sky Survey-Kuiper  (N32.416847 W110.732550)  US/Arizona.
   Observers T. A. Pruyne, B. M. Africano, E. J. Christensen, G. A. Farneth,
   D. C. Fuls, A. R. Gibbs, A. D. Grauer, H. Groeller, J. A. Johnson, R. A.
   Kowalski, S. M. Larson, G. J. Leonard, R. L. Seaman, F. C. Shelly. 1.55-m
   reflector + CCD.

Orbital elements:  C0QFPC2
   Perihelion 2019 Aug 5.434082 +/- 0.29 TT = 10:25:04 (JD 2458700.934082)
Epoch 2019 Jun 13.0 TT = JDT 2458647.5   Earth MOID: 0.4262   Ma: 0.0801
M 345.54023413 +/- 0.28             (J2000 ecliptic)          AutoNEOCP
n   0.27060942 +/- 0.00395          Peri.   38.51596 +/- 0.21
a   2.36723173 +/- 0.023            Node   292.50791 +/- 0.06
e   0.4126029 +/- 0.00489           Incl.   22.53082 +/- 0.044
P   3.64                   H 19.6   G  0.15   U  9.0  
q 1.39050495 +/- 0.00202    Q 3.34395851 +/- 0.0455
From 23 observations 2019 June 3-13; mean residual 0".40
Residuals in arcseconds: 
190603 G96  .95+  .06-    190604 V06  .17+  .03-    190606 G96  .15-  .57-    
190603 G96  .16+  .43+    190604 V06  .15-  .43-    190611 G96  .52+  .13-    
190603 G96  .60-  .06+    190605 V06  .42-  .07+    190611 G96  .54+  .04+    
190603 G96  .05-  .27+    190605 V06  .18-  .10+    190611 G96  .39+  1.4+    
190603 G96  .30+  .15+    190605 V06  .07+  .14-    190613 G96  .74-  .85-    
190603 G96  .18-  .29+    190606 G96  .50-  .04+    190613 G96  .40-  .07+    
190604 V06  .08+  .10-    190606 G96  .27-  .27-    190613 G96  .25+  .08+    
190604 V06  .05+  .02-    190606 G96  .18+  .28-    

Ephemerides (geocentric):
Date (UTC) HH   RA              Dec         delta   r     elong  mag " sig PA
---- -- -- --  -------------   -----------  ------ ------ -----  --- ---- ---
2019 06 15 01  22 31 23.013   -06 56 25.86  .81261 1.4697 106.5 21.7 .476 141
2019 06 15 02  22 31 27.022   -06 54 47.81  .81226 1.4696 106.5 21.7 .486 141
2019 06 15 03  22 31 31.029   -06 53 09.72  .81192 1.4695 106.5 21.7 .495 141
2019 06 15 04  22 31 35.033   -06 51 31.57  .81157 1.4694 106.5 21.7 .505 141
2019 06 15 05  22 31 39.036   -06 49 53.36  .81123 1.4692 106.5 21.6 .515 141
2019 06 15 06  22 31 43.036   -06 48 15.10  .81089 1.4691 106.5 21.6 .524 141
2019 06 15 07  22 31 47.035   -06 46 36.79  .81054 1.4690 106.6 21.6 .534 141
2019 06 15 08  22 31 51.031   -06 44 58.42  .81020 1.4689 106.6 21.6 .544 141
2019 06 15 09  22 31 55.025   -06 43 19.99  .80986 1.4687 106.6 21.6 .554 141
2019 06 15 10  22 31 59.018   -06 41 41.51  .80952 1.4686 106.6 21.6 .564 141
2019 06 15 11  22 32 03.008   -06 40 02.98  .80917 1.4685 106.6 21.6 .574 141
2019 06 15 12  22 32 06.996   -06 38 24.39  .80883 1.4684 106.6 21.6 .584 142
2019 06 15 13  22 32 10.982   -06 36 45.75  .80849 1.4683 106.6 21.6 .595 142
2019 06 15 14  22 32 14.966   -06 35 07.05  .80815 1.4681 106.7 21.6 .605 142
2019 06 15 15  22 32 18.948   -06 33 28.30  .80781 1.4680 106.7 21.6 .615 142
2019 06 15 16  22 32 22.927   -06 31 49.50  .80747 1.4679 106.7 21.6 .626 142
2019 06 15 17  22 32 26.905   -06 30 10.64  .80712 1.4678 106.7 21.6 .636 142
2019 06 15 18  22 32 30.880   -06 28 31.72  .80678 1.4677 106.7 21.6 .647 142
2019 06 15 19  22 32 34.854   -06 26 52.75  .80644 1.4675 106.7 21.6 .658 142
2019 06 15 20  22 32 38.825   -06 25 13.73  .80610 1.4674 106.7 21.6 .669 142
2019 06 15 21  22 32 42.795   -06 23 34.65  .80576 1.4673 106.8 21.6 .679 142
2019 06 15 22  22 32 46.762   -06 21 55.51  .80542 1.4672 106.8 21.6 .690 142
2019 06 15 23  22 32 50.727   -06 20 16.32  .80508 1.4671 106.8 21.6 .701 142
2019 06 16 00  22 32 54.690   -06 18 37.08  .80474 1.4669 106.8 21.6 .713 142
2019 06 16 01  22 32 58.651   -06 16 57.78  .80440 1.4668 106.8 21.6 .724 142
2019 06 16 02  22 33 02.610   -06 15 18.43  .80407 1.4667 106.8 21.6 .735 142
2019 06 16 03  22 33 06.567   -06 13 39.03  .80373 1.4666 106.8 21.6 .746 142
2019 06 16 04  22 33 10.521   -06 11 59.56  .80339 1.4664 106.9 21.6 .758 142
2019 06 16 05  22 33 14.474   -06 10 20.05  .80305 1.4663 106.9 21.6 .769 142
2019 06 16 06  22 33 18.425   -06 08 40.48  .80271 1.4662 106.9 21.6 .781 142
2019 06 16 07  22 33 22.373   -06 07 00.85  .80237 1.4661 106.9 21.6 .793 142
2019 06 16 08  22 33 26.319   -06 05 21.17  .80204 1.4660 106.9 21.6 .804 142
2019 06 16 09  22 33 30.263   -06 03 41.44  .80170 1.4659 106.9 21.6 .816 142
2019 06 16 10  22 33 34.206   -06 02 01.65  .80136 1.4657 106.9 21.6 .828 142
2019 06 16 11  22 33 38.146   -06 00 21.81  .80102 1.4656 107.0 21.6 .840 142
2019 06 16 12  22 33 42.083   -05 58 41.91  .80069 1.4655 107.0 21.6 .852 142
2019 06 16 13  22 33 46.019   -05 57 01.96  .80035 1.4654 107.0 21.6 .864 142
2019 06 16 14  22 33 49.953   -05 55 21.95  .80001 1.4653 107.0 21.6 .877 142
2019 06 16 15  22 33 53.884   -05 53 41.89  .79968 1.4651 107.0 21.6 .889 143
2019 06 16 16  22 33 57.814   -05 52 01.77  .79934 1.4650 107.0 21.6 .901 143
2019 06 16 17  22 34 01.741   -05 50 21.60  .79901 1.4649 107.0 21.6 .914 143
2019 06 16 18  22 34 05.666   -05 48 41.37  .79867 1.4648 107.0 21.6 .926 143
2019 06 16 19  22 34 09.590   -05 47 01.09  .79834 1.4647 107.1 21.6 .939 143
2019 06 16 20  22 34 13.511   -05 45 20.76  .79800 1.4645 107.1 21.6 .952 143
2019 06 16 21  22 34 17.430   -05 43 40.37  .79767 1.4644 107.1 21.6 .964 143
2019 06 16 22  22 34 21.346   -05 41 59.93  .79733 1.4643 107.1 21.6 .977 143
2019 06 16 23  22 34 25.261   -05 40 19.43  .79700 1.4642 107.1 21.6 0.99 143
2019 06 17 00  22 34 29.174   -05 38 38.88  .79666 1.4641 107.1 21.6 1.00 143